📊 Raw Sensor Data

Showing records 34601 to 34625 of 84,861 total

ID Distance (ft) Battery V Battery A Int Temp (°F) Int Humid (%) Ext Temp (°F) Solar V RSSI SNR Time Stamp
50273 15.2 3.54 -5 61 44 62 0.00 -71 8 08/26/2025 05:30 AM
50272 15.2 3.53 -5 62 44 63 0.00 -71 8 08/26/2025 05:15 AM
50271 15.2 3.53 -5 62 44 63 0.00 -72 8 08/26/2025 05:00 AM
50270 15.2 3.53 -5 62 44 63 0.00 -71 8 08/26/2025 04:45 AM
50269 15.2 3.54 -5 62 44 64 0.00 -72 8 08/26/2025 04:30 AM
50268 15.2 3.54 -5 62 44 63 0.00 -72 8 08/26/2025 04:15 AM
50267 15.2 3.53 -5 61 44 63 0.00 -72 8 08/26/2025 04:00 AM
50266 15.2 3.53 -5 61 44 62 0.10 -72 8 08/26/2025 03:45 AM
50265 15.2 3.54 -5 61 44 62 0.10 -72 8 08/26/2025 03:30 AM
50264 15.2 3.54 -5 61 44 62 0.00 -72 8 08/26/2025 03:15 AM
50263 15.2 3.54 -5 61 45 62 0.00 -72 8 08/26/2025 02:45 AM
50262 15.2 3.71 -5 61 45 62 0.00 -71 9 08/26/2025 02:30 AM
50261 15.2 3.71 -5 61 45 62 0.00 -71 9 08/26/2025 02:15 AM
50260 15.2 3.71 -5 61 45 62 0.00 -72 9 08/26/2025 02:00 AM
50259 15.2 3.71 -5 62 45 62 0.00 -72 9 08/26/2025 01:45 AM
50258 15.2 3.71 -5 62 45 63 0.10 -70 8 08/26/2025 01:30 AM
50257 15.1 3.72 -5 63 45 63 0.10 -72 7 08/26/2025 01:15 AM
50256 15.2 3.72 -5 64 45 63 0.00 -72 8 08/26/2025 01:00 AM
50255 15.2 3.72 -5 64 45 64 0.00 -69 9 08/26/2025 12:45 AM
50254 15.2 3.55 -5 65 45 66 0.00 -71 9 08/26/2025 12:30 AM
50253 15.1 3.55 -5 66 45 66 0.00 -69 8 08/26/2025 12:15 AM
50252 15.1 3.55 -5 66 45 66 0.00 -71 8 08/26/2025 12:00 AM
50251 15.1 3.55 -5 66 45 66 0.00 -71 8 08/25/2025 11:45 PM
50250 15.1 3.72 -5 66 46 67 0.00 -71 8 08/25/2025 11:30 PM
50249 15.1 3.72 -5 66 46 66 0.00 -71 9 08/25/2025 11:15 PM